Weather History for KCRP - February, 2014

Change the Weather History Date:

Friday, February 14, 2014

  Actual Average Record
Temperature  
Mean Temperature 67 °F 60 °F  
Max Temperature 91 °F 70 °F 91 °F (2014)
Min Temperature 42 °F 50 °F 26 °F (1895)
Degree Days  
Heating Degree Days 0 6  
Month to date heating degree days 195 100  
Since 1 July heating degree days 961 727  
Cooling Degree Days 2 2  
Month to date cooling degree days 9 21  
Year to date cooling degree days 11 51  
Growing Degree Days 16 (Base 50)    
Moisture  
Dew Point 49 °F    
Average Humidity 61    
Maximum Humidity 100    
Minimum Humidity 21    
Precipitation  
Precipitation 0.00 in 0.08 in 1.98 in (1942)
Month to date precipitation 0.11 0.89  
Year to date precipitation 0.78 2.43  
Snow  
Snow 0.00 in - - ()
Month to date snowfall 0.0  
Since 1 July snowfall T  
Snow Depth 0.00 in    
Sea Level Pressure  
Sea Level Pressure 29.93 in    
Wind  
Wind Speed 9 mph (SSE)    
Max Wind Speed 25 mph    
Max Gust Speed 30 mph    
Visibility 9 miles    
Events Fog    
T = Trace of Precipitation, MM = Missing Value Source: NWS Daily Summary

Daily Weather History Graph

Daily Weather History Graph

Search for Another Location

Airport or City:

Trip Planner

Search our weather history database for the weather conditions in past years. The results will help you decide how hot, cold, wet, or windy it might be!

Date:

Astronomy

Feb. 14, 2014 Rise Set
Actual Time 7:08 AM CST 6:20 PM CST
Civil Twilight 6:44 AM CST 6:44 PM CST
Nautical Twilight 6:16 AM CST 7:12 PM CST
Astronomical Twilight 5:49 AM CST 7:39 PM CST
Moon 6:20 PM CST (2/14) 6:38 AM CST (2/14)
Length of Visible Light 12h 00m
Length of Day
11h 12m
Full, 100% of the Moon is Illuminated
Feb 14
Full
Feb 14
Full
Feb 22
Last Quarter
Mar 1
New
Mar 8
First Quarter

Hourly Weather History & Observations

Time (CST) Temp. Windchill Dew Point Humidity Pressure Visibility Wind Dir Wind Speed Gust Speed Precip Events Conditions
12:51 AM 48.9 °F - 46.0 °F 90% 29.97 in 10.0 mi SE 4.6 mph - N/A   Clear
1:51 AM 48.0 °F - 46.0 °F 93% 29.96 in 10.0 mi SE 5.8 mph - N/A   Clear
2:51 AM 46.9 °F - 46.0 °F 97% 29.94 in 10.0 mi SSE 5.8 mph - N/A Fog Patches of Fog
3:51 AM 44.1 °F 39.5 °F 42.1 °F 93% 29.90 in 9.0 mi SSE 8.1 mph - N/A Fog Patches of Fog
4:51 AM 46.0 °F 42.5 °F 44.1 °F 93% 29.91 in 10.0 mi SSE 6.9 mph - N/A Fog Patches of Fog
5:51 AM 45.0 °F 40.6 °F 44.1 °F 97% 29.91 in 10.0 mi SSE 8.1 mph - N/A Fog Patches of Fog
6:51 AM 45.0 °F 41.2 °F 43.0 °F 93% 29.93 in 6.0 mi SSE 6.9 mph - N/A Fog Clear
7:12 AM 44.6 °F 41.4 °F 44.6 °F 100% 29.93 in 1.2 mi SSE 5.8 mph - N/A Fog Clear
7:51 AM 46.9 °F - 46.0 °F 97% 29.94 in 1.5 mi SSE 6.9 mph - N/A Fog Partly Cloudy
8:07 AM 50.0 °F - 48.2 °F 94% 29.93 in 4.0 mi SSE 8.1 mph - N/A Fog Partly Cloudy
8:51 AM 57.0 °F - 53.1 °F 87% 29.94 in 6.0 mi South 11.5 mph - N/A   Partly Cloudy
9:51 AM 66.9 °F - 55.9 °F 68% 29.96 in 10.0 mi South 20.7 mph - N/A   Clear
10:51 AM 72.0 °F - 55.0 °F 55% 29.95 in 10.0 mi SW 20.7 mph - N/A   Clear
11:51 AM 79.0 °F - 53.1 °F 40% 29.90 in 10.0 mi SSW 18.4 mph 28.8 mph N/A   Clear
12:51 PM 82.0 °F - 50.0 °F 33% 29.89 in 10.0 mi SSW 12.7 mph 20.7 mph N/A   Clear
1:51 PM 84.0 °F - 48.0 °F 28% 29.85 in 10.0 mi WSW 13.8 mph - N/A   Clear
2:51 PM 86.0 °F - 46.9 °F 26% 29.83 in 10.0 mi West 6.9 mph - N/A   Clear
3:51 PM 89.1 °F - 45.0 °F 22% 29.82 in 10.0 mi SW 9.2 mph - N/A   Clear
4:51 PM 90.0 °F - 45.0 °F 21% 29.82 in 10.0 mi Calm Calm - N/A   Partly Cloudy
5:51 PM 78.1 °F - 55.9 °F 46% 29.86 in 10.0 mi SE 8.1 mph - N/A   Partly Cloudy
6:51 PM 68.0 °F - 53.1 °F 59% 29.88 in 10.0 mi ESE 6.9 mph - N/A   Partly Cloudy
7:51 PM 63.0 °F - 53.1 °F 70% 29.94 in 10.0 mi NNE 3.5 mph - N/A   Partly Cloudy
8:51 PM 60.1 °F - 53.1 °F 78% 29.98 in 10.0 mi ENE 3.5 mph - N/A   Partly Cloudy
9:51 PM 57.0 °F - 48.0 °F 72% 30.01 in 10.0 mi SE 3.5 mph - N/A   Partly Cloudy
10:51 PM 59.0 °F - 52.0 °F 78% 30.04 in 10.0 mi NNE 10.4 mph - N/A   Partly Cloudy
11:51 PM 60.1 °F - 53.1 °F 78% 30.05 in 10.0 mi NE 11.5 mph - N/A   Partly Cloudy